Time,TemperatureF,DewpointF,PressureIn,WindDirection,WindDirectionDegrees,WindSpeedMPH,WindSpeedGustMPH,Humidity,HourlyPrecipIn,Conditions,Clouds,dailyrainin,SoftwareType,DateUTC
2013-02-21 00:02:00,19.4,15.9,30.12,West,273,0.0,8.0,86,0.00,,,0.00,VWS V14.01,2013-02-21 05:02:00,
2013-02-21 00:16:00,19.7,16.2,30.12,West,271,3.0,8.0,86,0.00,,,0.00,VWS V14.01,2013-02-21 05:16:00,
2013-02-21 00:31:00,19.9,16.4,30.12,West,261,0.0,9.0,86,0.00,,,0.00,VWS V14.01,2013-02-21 05:31:00,
2013-02-21 00:46:00,20.3,16.2,30.12,NW,314,1.0,8.0,84,0.00,,,0.00,VWS V14.01,2013-02-21 05:46:00,
2013-02-21 01:01:00,20.8,16.5,30.12,West,279,3.0,9.0,83,0.00,,,0.00,VWS V14.01,2013-02-21 06:01:00,
2013-02-21 01:16:00,21.0,16.4,30.12,NW,310,0.0,11.0,82,0.00,,,0.00,VWS V14.01,2013-02-21 06:16:00,
2013-02-21 01:31:00,21.0,16.4,30.12,WNW,284,2.0,10.0,82,0.00,,,0.00,VWS V14.01,2013-02-21 06:31:00,
2013-02-21 01:46:00,21.1,16.2,30.12,WSW,252,3.0,10.0,81,0.00,,,0.00,VWS V14.01,2013-02-21 06:46:00,
2013-02-21 02:01:00,20.8,16.5,30.13,WNW,288,9.0,17.0,83,0.00,,,0.00,VWS V14.01,2013-02-21 07:01:00,
2013-02-21 02:16:00,20.7,16.1,30.13,West,281,5.0,15.0,82,0.00,,,0.00,VWS V14.01,2013-02-21 07:16:00,
2013-02-21 02:31:00,20.3,15.7,30.14,West,266,12.0,18.0,82,0.00,,,0.00,VWS V14.01,2013-02-21 07:31:00,
2013-02-21 02:46:00,19.9,16.1,30.14,WNW,291,1.0,12.0,85,0.00,,,0.00,VWS V14.01,2013-02-21 07:46:00,
2013-02-21 03:01:00,19.2,16.0,30.14,WNW,284,1.0,11.0,87,0.00,,,0.00,VWS V14.01,2013-02-21 08:01:00,
2013-02-21 03:16:00,18.8,15.1,30.13,NW,313,7.0,12.0,85,0.00,,,0.00,VWS V14.01,2013-02-21 08:16:00,
2013-02-21 03:31:00,18.4,14.4,30.14,West,271,2.0,11.0,84,0.00,,,0.00,VWS V14.01,2013-02-21 08:31:00,
2013-02-21 03:46:00,18.0,14.3,30.15,WNW,292,4.0,14.0,85,0.00,,,0.00,VWS V14.01,2013-02-21 08:46:00,
2013-02-21 04:01:00,17.8,13.8,30.16,NW,311,2.0,12.0,84,0.00,,,0.00,VWS V14.01,2013-02-21 09:01:00,
2013-02-21 04:16:00,17.4,13.1,30.17,NW,320,2.0,14.0,83,0.00,,,0.00,VWS V14.01,2013-02-21 09:16:00,
2013-02-21 04:31:00,17.1,12.6,30.17,NW,315,1.0,14.0,82,0.00,,,0.00,VWS V14.01,2013-02-21 09:31:00,
2013-02-21 04:46:00,16.7,12.4,30.17,WNW,297,4.0,14.0,83,0.00,,,0.00,VWS V14.01,2013-02-21 09:46:00,
2013-02-21 05:01:00,16.5,12.8,30.18,WNW,297,3.0,9.0,85,0.00,,,0.00,VWS V14.01,2013-02-21 10:01:00,
2013-02-21 05:16:00,16.2,12.8,30.20,WNW,286,5.0,10.0,86,0.00,,,0.00,VWS V14.01,2013-02-21 10:16:00,
2013-02-21 05:31:00,15.6,12.2,30.20,NNW,333,4.0,16.0,86,0.00,,,0.00,VWS V14.01,2013-02-21 10:31:00,
2013-02-21 05:46:00,15.2,11.5,30.21,WNW,286,5.0,15.0,85,0.00,,,0.00,VWS V14.01,2013-02-21 10:46:00,
2013-02-21 06:01:00,14.8,10.6,30.21,West,273,2.0,13.0,83,0.00,,,0.00,VWS V14.01,2013-02-21 11:01:00,
2013-02-21 06:16:00,14.4,10.2,30.22,WNW,288,5.0,14.0,83,0.00,,,0.00,VWS V14.01,2013-02-21 11:16:00,
2013-02-21 06:31:00,14.3,10.1,30.23,West,276,2.0,13.0,83,0.00,,,0.00,VWS V14.01,2013-02-21 11:31:00,
2013-02-21 06:46:00,14.1,10.4,30.23,ESE,103,1.0,8.0,85,0.00,,,0.00,VWS V14.01,2013-02-21 11:46:00,
2013-02-21 07:01:00,13.9,10.2,30.24,WNW,287,2.0,12.0,85,0.00,,,0.00,VWS V14.01,2013-02-21 12:01:00,
2013-02-21 07:16:00,13.6,9.9,30.25,NW,306,6.0,13.0,85,0.00,,,0.00,VWS V14.01,2013-02-21 12:16:00,
2013-02-21 07:31:00,13.4,10.0,30.25,West,271,1.0,11.0,86,0.00,,,0.00,VWS V14.01,2013-02-21 12:31:00,
2013-02-21 07:46:00,13.2,9.8,30.26,WNW,282,4.0,14.0,86,0.00,,,0.00,VWS V14.01,2013-02-21 12:46:00,
2013-02-21 08:01:00,13.3,10.2,30.27,NW,307,3.0,16.0,87,0.00,,,0.00,VWS V14.01,2013-02-21 13:01:00,
2013-02-21 08:16:00,13.2,9.6,30.27,West,261,11.0,17.0,85,0.00,,,0.00,VWS V14.01,2013-02-21 13:16:00,
2013-02-21 08:31:00,13.5,9.8,30.28,WNW,298,7.0,14.0,85,0.00,,,0.00,VWS V14.01,2013-02-21 13:31:00,
2013-02-21 08:46:00,13.6,9.9,30.29,North,5,2.0,16.0,85,0.00,,,0.00,VWS V14.01,2013-02-21 13:46:00,
2013-02-21 09:01:00,13.2,9.6,30.29,WSW,245,4.0,10.0,85,0.00,,,0.00,VWS V14.01,2013-02-21 14:01:00,
2013-02-21 09:16:00,13.2,9.0,30.30,WNW,293,2.0,13.0,83,0.00,,,0.00,VWS V14.01,2013-02-21 14:16:00,
2013-02-21 09:31:00,13.5,8.5,30.31,West,279,2.0,14.0,80,0.00,,,0.00,VWS V14.01,2013-02-21 14:31:00,
2013-02-21 09:46:00,14.1,9.4,30.32,West,280,1.0,11.0,81,0.00,,,0.00,VWS V14.01,2013-02-21 14:46:00,
2013-02-21 10:01:00,13.6,8.3,30.32,NW,309,3.0,12.0,79,0.00,,,0.00,VWS V14.01,2013-02-21 15:01:00,
2013-02-21 10:16:00,13.9,8.9,30.34,WNW,285,4.0,15.0,80,0.00,,,0.00,VWS V14.01,2013-02-21 15:16:00,
2013-02-21 10:31:00,14.6,10.4,30.34,West,268,1.0,9.0,83,0.00,,,0.00,VWS V14.01,2013-02-21 15:31:00,
2013-02-21 10:46:00,14.5,9.2,30.34,West,273,7.0,13.0,79,0.00,,,0.00,VWS V14.01,2013-02-21 15:46:00,
2013-02-21 11:01:00,14.6,9.0,30.34,WSW,256,3.0,13.0,78,0.00,,,0.00,VWS V14.01,2013-02-21 16:01:00,
2013-02-21 11:16:00,15.1,9.8,30.35,West,273,6.0,16.0,79,0.00,,,0.00,VWS V14.01,2013-02-21 16:16:00,
2013-02-21 11:31:00,15.2,9.6,30.35,West,266,4.0,12.0,78,0.00,,,0.00,VWS V14.01,2013-02-21 16:31:00,
2013-02-21 11:46:00,15.4,9.8,30.35,WNW,288,9.0,17.0,78,0.00,,,0.00,VWS V14.01,2013-02-21 16:46:00,
2013-02-21 12:01:00,15.1,9.2,30.34,WNW,286,4.0,16.0,77,0.00,,,0.00,VWS V14.01,2013-02-21 17:01:00,
2013-02-21 12:16:00,15.7,10.1,30.34,WNW,302,4.0,16.0,78,0.00,,,0.00,VWS V14.01,2013-02-21 17:16:00,
2013-02-21 12:30:00,16.2,10.6,30.33,WNW,292,6.0,17.0,78,0.00,,,0.00,VWS V14.01,2013-02-21 17:30:00,
2013-02-21 13:01:00,17.6,11.6,30.33,WNW,302,4.0,12.0,77,0.00,,,0.00,VWS V14.01,2013-02-21 18:01:00,
2013-02-21 13:16:00,17.3,11.6,30.35,WNW,302,4.0,15.0,78,0.00,,,0.00,VWS V14.01,2013-02-21 18:16:00,
2013-02-21 13:31:00,17.6,12.2,30.35,North,360,2.0,13.0,79,0.00,,,0.00,VWS V14.01,2013-02-21 18:31:00,
2013-02-21 13:46:00,18.3,12.6,30.35,West,274,5.0,14.0,78,0.00,,,0.00,VWS V14.01,2013-02-21 18:46:00,
2013-02-21 14:01:00,18.7,13.0,30.35,WNW,299,1.0,12.0,78,0.00,,,0.00,VWS V14.01,2013-02-21 19:01:00,
2013-02-21 14:16:00,19.1,13.1,30.35,WNW,287,9.0,9.0,77,0.00,,,0.00,VWS V14.01,2013-02-21 19:16:00,
2013-02-21 14:31:00,18.8,13.1,30.35,WNW,286,1.0,11.0,78,0.00,,,0.00,VWS V14.01,2013-02-21 19:31:00,
2013-02-21 14:46:00,18.7,12.7,30.35,WNW,303,3.0,12.0,77,0.00,,,0.00,VWS V14.01,2013-02-21 19:46:00,
2013-02-21 15:01:00,18.9,12.9,30.36,WNW,290,4.0,10.0,77,0.00,,,0.00,VWS V14.01,2013-02-21 20:01:00,
2013-02-21 15:16:00,18.9,13.2,30.37,NW,308,3.0,12.0,78,0.00,,,0.00,VWS V14.01,2013-02-21 20:16:00,
2013-02-21 15:31:00,18.6,12.9,30.38,WNW,296,4.0,9.0,78,0.00,,,0.00,VWS V14.01,2013-02-21 20:31:00,
2013-02-21 15:46:00,18.6,13.5,30.40,WNW,288,0.0,8.0,80,0.00,,,0.00,VWS V14.01,2013-02-21 20:46:00,
2013-02-21 16:01:00,18.6,13.8,30.40,WNW,296,4.0,10.0,81,0.00,,,0.00,VWS V14.01,2013-02-21 21:01:00,
2013-02-21 16:16:00,18.8,14.2,30.41,West,280,1.0,8.0,82,0.00,,,0.00,VWS V14.01,2013-02-21 21:16:00,
2013-02-21 16:31:00,19.0,14.1,30.41,WNW,290,0.0,4.0,81,0.00,,,0.00,VWS V14.01,2013-02-21 21:31:00,
2013-02-21 16:46:00,19.1,14.5,30.41,NE,42,0.0,4.0,82,0.00,,,0.00,VWS V14.01,2013-02-21 21:46:00,
2013-02-21 17:01:00,19.0,14.7,30.41,WNW,292,3.0,5.0,83,0.00,,,0.00,VWS V14.01,2013-02-21 22:01:00,
2013-02-21 17:16:00,19.1,14.8,30.41,West,275,0.0,5.0,83,0.00,,,0.00,VWS V14.01,2013-02-21 22:16:00,
2013-02-21 17:31:00,19.3,15.3,30.41,WNW,289,1.0,4.0,84,0.00,,,0.00,VWS V14.01,2013-02-21 22:31:00,
2013-02-21 17:46:00,19.4,15.4,30.42,West,275,0.0,4.0,84,0.00,,,0.00,VWS V14.01,2013-02-21 22:46:00,
2013-02-21 18:01:00,19.6,15.6,30.41,West,274,0.0,2.0,84,0.00,,,0.00,VWS V14.01,2013-02-21 23:01:00,
2013-02-21 18:16:00,19.7,15.9,30.42,West,274,0.0,2.0,85,0.00,,,0.00,VWS V14.01,2013-02-21 23:16:00,
2013-02-21 18:31:00,19.8,16.0,30.44,West,274,0.0,1.0,85,0.00,,,0.00,VWS V14.01,2013-02-21 23:31:00,
2013-02-21 18:46:00,20.2,16.4,30.47,West,272,0.0,2.0,85,0.00,,,0.00,VWS V14.01,2013-02-21 23:46:00,
2013-02-21 19:01:00,21.0,16.7,30.49,NW,304,5.0,5.0,83,0.00,,,0.00,VWS V14.01,2013-02-22 00:01:00,
2013-02-21 19:16:00,21.4,16.5,30.49,WNW,288,2.0,6.0,81,0.00,,,0.00,VWS V14.01,2013-02-22 00:16:00,
2013-02-21 19:31:00,21.5,16.3,30.49,West,275,0.0,4.0,80,0.00,,,0.00,VWS V14.01,2013-02-22 00:31:00,
2013-02-21 19:46:00,21.7,16.2,30.51,West,263,2.0,3.0,79,0.00,,,0.00,VWS V14.01,2013-02-22 00:46:00,
2013-02-21 20:01:00,21.8,16.6,30.51,NW,306,0.0,3.0,80,0.00,,,0.00,VWS V14.01,2013-02-22 01:01:00,
2013-02-21 20:16:00,22.0,16.8,30.51,NW,306,0.0,2.0,80,0.00,,,0.00,VWS V14.01,2013-02-22 01:16:00,
2013-02-21 20:31:00,22.1,16.6,30.51,WNW,284,2.0,4.0,79,0.00,,,0.00,VWS V14.01,2013-02-22 01:31:00,
2013-02-21 20:46:00,22.2,16.7,30.51,WNW,299,0.0,4.0,79,0.00,,,0.00,VWS V14.01,2013-02-22 01:46:00,
2013-02-21 21:01:00,22.3,16.5,30.51,WNW,286,1.0,5.0,78,0.00,,,0.00,VWS V14.01,2013-02-22 02:01:00,
2013-02-21 21:16:00,22.4,16.9,30.51,WNW,295,0.0,3.0,79,0.00,,,0.00,VWS V14.01,2013-02-22 02:16:00,
2013-02-21 21:31:00,22.4,16.9,30.50,WNW,296,0.0,3.0,79,0.00,,,0.00,VWS V14.01,2013-02-22 02:31:00,
2013-02-21 21:46:00,22.3,17.1,30.50,WNW,295,0.0,1.0,80,0.00,,,0.00,VWS V14.01,2013-02-22 02:46:00,
2013-02-21 22:01:00,22.3,17.1,30.50,WNW,296,0.0,0.0,80,0.00,,,0.00,VWS V14.01,2013-02-22 03:01:00,
2013-02-21 22:16:00,22.2,17.0,30.50,WNW,296,0.0,0.0,80,0.00,,,0.00,VWS V14.01,2013-02-22 03:16:00,
2013-02-21 22:31:00,22.2,17.3,30.50,WNW,296,0.0,0.0,81,0.00,,,0.00,VWS V14.01,2013-02-22 03:31:00,
2013-02-21 22:46:00,22.2,17.3,30.49,WNW,296,0.0,0.0,81,0.00,,,0.00,VWS V14.01,2013-02-22 03:46:00,
2013-02-21 23:01:00,22.2,17.5,30.48,WNW,295,0.0,0.0,82,0.00,,,0.00,VWS V14.01,2013-02-22 04:01:00,
2013-02-21 23:16:00,22.1,17.5,30.48,WNW,295,0.0,0.0,82,0.00,,,0.00,VWS V14.01,2013-02-22 04:16:00,
2013-02-21 23:31:00,22.1,17.7,30.49,WNW,295,0.0,0.0,83,0.00,,,0.00,VWS V14.01,2013-02-22 04:31:00,
2013-02-21 23:46:00,22.0,17.6,30.49,SW,236,0.0,3.0,83,0.00,,,0.00,VWS V14.01,2013-02-22 04:46:00,